Location: Unspecified
(40.8819°N, 0.0000°E)
Time: 07:03:58
(UTC+00:00)

Tiangong - Visible Passes

Search period start: 01 December 2023 00:00
Search period end: 11 December 2023 00:00
Orbit: 373 x 384 km, 41.5° (Epoch: 30 November)

Date Brightness Start Highest point End Pass type
(mag) Time Alt. Az. Time Alt. Az. Time Alt. Az.
01 Dec -1.8 17:07:50 10° W 17:10:59 67° SSW 17:14:06 10° ESE visible
01 Dec 0.4 18:45:08 10° WSW 18:47:17 17° SSW 18:47:17 17° SSW visible
02 Dec -0.3 17:43:01 10° W 17:45:49 29° SSW 17:48:36 10° SE visible
03 Dec 1.1 18:19:29 10° SW 18:20:21 11° SW 18:21:12 10° SSW visible
04 Dec 0.7 17:16:24 10° WSW 17:18:43 19° SSW 17:21:02 10° SSE visible
